Simultaneous Nadir Overpasses (SNOs) Predictions

Prediction of SNOs between AQUA and METOP-B Satellite Orbit:

Table of predicted SNOs for the next 14.0 days since TLE Epoch: 11/4/2023
Index Date (AQUA) Time (AQUA) Lat,Lon (AQUA) SZA (AQUA ) Date (METOP-B) Time (METOP-B) Lat,Lon (METOP-B) SZA (METOP-B ) Distance(km) Time Diff (sec)
1 11/04/2023 12:41:56 74.96, -14.11 90.26 11/04/2023 12:41:14 74.96, -14.04 90.27 2.06 42
2 11/04/2023 13:31:20 -75.02, 153.37 89.67 11/04/2023 13:31:55 -75.00, 153.38 89.69 3.03 35
3 11/07/2023 05:44:04 -74.94, -89.55 88.95 11/07/2023 05:43:34 -74.95, -89.67 88.93 3.93 30
4 11/07/2023 06:33:30 75.01, 77.90 91.14 11/07/2023 06:34:12 75.04, 77.90 91.17 2.63 42
5 11/09/2023 22:46:13 74.96,-165.10 91.86 11/09/2023 22:45:51 74.97,-165.19 91.88 2.96 22
6 11/09/2023 23:35:38 -75.06, 2.27 88.03 11/09/2023 23:36:31 -75.06, 2.38 88.03 3.16 53
7 11/12/2023 14:58:46 74.48, -47.02 92.13 11/12/2023 14:57:40 74.41, -49.62 92.06 77.80 66
8 11/12/2023 15:48:18 -74.99, 119.34 87.36 11/12/2023 15:48:09 -74.99, 119.26 87.36 2.24 9
9 11/12/2023 16:37:44 75.07, -73.25 92.74 11/12/2023 16:38:47 75.07, -73.17 92.74 2.21 63
10 11/15/2023 08:00:58 -74.94,-123.67 86.71 11/15/2023 07:59:47 -74.95,-123.75 86.69 3.04 71
11 11/15/2023 08:50:24 75.03, 43.73 93.40 11/15/2023 08:50:25 75.03, 43.80 93.40 2.14 1
12 11/15/2023 09:39:51 -75.23,-149.15 86.40 11/15/2023 09:41:02 -75.27,-148.20 86.36 27.21 71
13 11/18/2023 01:03:02 74.97, 160.77 94.00 11/18/2023 01:02:03 74.98, 160.75 94.02 1.69 59
14 11/18/2023 01:52:26 -75.01, -31.69 85.95 11/18/2023 01:52:44 -75.03, -31.80 85.94 3.73 18



Historial Predications of SNOs between AQUA and METOP-B
